Home > Weather > Daegu > Past weeks

Flag for South Korea Past Weather in Daegu, South Korea — Yesterday and Last 2 Weeks

Now
72 °F

Clear.


Feels Like: 74 °F
Forecast: 66 / 82 °F
Wind: 5 mph from Southeast

Location: Taegu Ab

Current Time: Jun 28, 2016 at 10:22:49 PM

Latest Report: Jun 28, 2016 at 10:00 PM


Visibility: 10 mi

Pressure: 29.89 "Hg

Humidity: 73%

Dew Point: 63 °F

Location of DaeguLocation

Past Weather in Daegu — Graph

°F

Daegu Temperature Yesterday

Maximum temperature yesterday: 81 °F (at 11:00 AM)
Minimum temperature yesterday: 63 °F (at 5:00 AM)
Average temperature yesterday: 73 °F

High & Low Weather Summary for the Past Weeks

 TemperatureHumidityPressure
High91 °F (Jun 18, 3:00 PM)94% (Jun 16, 5:00 AM)29.89 "Hg (Jun 16, 5:00 AM)
Low63 °F (Jun 27, 5:00 AM)22% (Jun 19, 7:00 PM)29.36 "Hg (Jun 24, 2:00 PM)
Average76 °F66%29.68 "Hg
* Reported Jun 13 9:00 PM — Jun 28 9:00 PM, Daegu, Weather by CustomWeather, © 2016

Note: Actual official high and low records may vary slightly from our data, if they occured in-between our weather recording intervals... More about our weather records

Advertising

Daegu Weather History for the Previous 24 Hours

Scroll right to see more
 ConditionsComfort  
Time TempWeatherWind HumidityBarometerVisibility
9:00 PM
Tue, Jun 28
73 °FClear.5 mph65%29.86 "Hg10 mi
8:00 PM75 °FPassing clouds.3 mph61%29.86 "HgN/A
7:00 PM77 °FPartly sunny.6 mph57%29.83 "HgN/A
6:00 PM79 °FPartly sunny.9 mph54%29.86 "HgN/A
5:00 PM79 °FBroken clouds.10 mph54%29.83 "HgN/A
4:00 PM81 °FBroken clouds.10 mph51%29.83 "HgN/A
3:00 PM82 °FBroken clouds.8 mph45%29.80 "HgN/A
2:00 PM82 °FBroken clouds.7 mph48%29.80 "HgN/A
1:00 PM82 °FBroken clouds.7 mph48%29.83 "HgN/A
12:00 PM82 °FScattered clouds.7 mph48%29.83 "HgN/A
11:00 AM81 °FScattered clouds.7 mph51%29.86 "HgN/A
10:00 AM77 °FPassing clouds.3 mph65%29.86 "Hg5 mi
9:00 AM73 °FFog.6 mph78%29.86 "Hg3 mi
8:00 AM70 °FFog.2 mph83%29.83 "Hg3 mi
7:04 AM68 °FFog.5 mph88%29.83 "Hg2 mi
7:00 AM68 °FFog.3 mph88%29.83 "Hg2 mi
6:04 AM66 °FFog.3 mph94%29.83 "Hg2 mi
6:00 AM66 °FFog.1 mph94%29.83 "Hg3 mi
5:00 AM66 °FPassing clouds.1 mph88%29.83 "Hg4 mi
4:00 AM66 °FPassing clouds.1 mph88%29.80 "Hg4 mi
3:00 AM66 °FPassing clouds.2 mph88%29.80 "Hg4 mi
2:00 AM66 °FPassing clouds.1 mph94%29.80 "Hg5 mi
1:00 AM66 °FClear.1 mph94%29.80 "Hg6 mi
12:00 AM66 °FClear.1 mph94%29.80 "Hg6 mi
11:00 PM
Mon, Jun 27
70 °FPassing clouds.1 mph88%29.80 "Hg6 mi
10:00 PM70 °FPassing clouds.1 mph94%29.80 "Hg6 mi
Weather by CustomWeather, © 2016

See weather overviewHow to use our weather pages